DW7639 Weather Reports


time (UTC)temp
C
wind
direction
speed
KPH
gust
KPH
rain 1hr
cm
rain 24hr
cm
rain mn
cm
humidity
%
barometer
mb
20260510202536 25 337 1.6 8.0 0.00 0.00 0.00 41 1014.9
20260510201516 25 350 1.6 4.8 0.00 0.00 0.00 41 1014.8
20260510200516 25 342 3.2 8.0 0.00 0.00 0.00 39 1014.8
20260510195537 26 5 4.8 9.7 0.00 0.00 0.00 39 1014.9
20260510194517 26 169 4.8 16.1 0.00 0.00 0.00 38 1014.9
20260510193520 26 333 3.2 9.7 0.00 0.00 0.00 39 1015.0
20260510192517 26 270 1.6 6.4 0.00 0.00 0.00 40 1015.1
20260510191517 26 192 3.2 12.9 0.00 0.00 0.00 39 1015.2
20260510190518 26 328 3.2 9.7 0.00 0.00 0.00 40 1015.3
20260510185517 26 325 3.2 6.4 0.00 0.00 0.00 41 1015.3
20260510184517 25 334 3.2 9.7 0.00 0.00 0.00 42 1015.4
20260510183518 25 16 3.2 6.4 0.00 0.00 0.00 42 1015.4
20260510182518 24 41 3.2 9.7 0.00 0.00 0.00 42 1015.6
20260510181519 24 12 3.2 9.7 0.00 0.00 0.00 43 1015.6
20260510180518 25 6 3.2 8.0 0.00 0.00 0.00 43 1015.7
20260510175519 26 342 3.2 9.7 0.00 0.00 0.00 41 1015.8
20260510174536 25 99 1.6 8.0 0.00 0.00 0.00 41 1015.8
20260510173516 26 349 4.8 12.9 0.00 0.00 0.00 41 1015.8
20260510172516 25 347 3.2 8.0 0.00 0.00 0.00 41 1016.0
20260510171516 26 352 3.2 9.7 0.00 0.00 0.00 41 1015.9
20260510170517 25 348 3.2 8.0 0.00 0.00 0.00 42 1016.2
20260510165516 25 2 3.2 9.7 0.00 0.00 0.00 41 1016.1
20260510164517 25 324 3.2 11.3 0.00 0.00 0.00 42 1016.1
20260510163517 24 224 3.2 12.9 0.00 0.00 0.00 44 1016.2
20260510162520 23 11 3.2 6.4 0.00 0.00 0.00 47 1016.3
20260510161517 24 336 3.2 9.7 0.00 0.00 0.00 46 1016.3
20260510160517 24 133 3.2 8.0 0.00 0.00 0.00 46 1016.4
20260510155517 23 304 3.2 12.9 0.00 0.00 0.00 48 1016.4
20260510154517 23 291 3.2 9.7 0.00 0.00 0.00 49 1016.6
20260510153538 23 297 3.2 9.7 0.00 0.00 0.00 49 1016.5
20260510152518 23 352 1.6 11.3 0.00 0.00 0.00 49 1016.5
20260510151518 22 4 3.2 8.0 0.00 0.00 0.00 51 1016.5
20260510150518 22 130 3.2 11.3 0.00 0.00 0.00 52 1016.6
20260510145518 22 20 1.6 6.4 0.00 0.00 0.00 54 1016.5
20260510144539 21 31 3.2 11.3 0.00 0.00 0.00 54 1016.6
20260510143516 21 99 3.2 11.3 0.00 0.00 0.00 55 1016.6
20260510142519 20 9 3.2 9.7 0.00 0.00 0.00 57 1016.6
20260510141516 20 18 3.2 12.9 0.00 0.00 0.00 58 1016.7
20260510140517 19 323 1.6 6.4 0.00 0.00 0.00 60 1016.7
20260510135537 18 268 3.2 6.4 0.00 0.00 0.00 62 1016.7
20260510134517 17 334 3.2 6.4 0.00 0.00 0.00 65 1016.9
20260510133517 16 67 1.6 4.8 0.00 0.00 0.00 70 1017.1
20260510132517 15 334 1.6 6.4 0.00 0.00 0.00 75 1017.0
20260510131517 13 269 1.6 4.8 0.00 0.00 0.00 79 1017.0
20260510130524 11 360 1.6 3.2 0.00 0.00 0.00 89 1017.0
20260510125545 10 28 0.0 1.6 0.00 0.00 0.00 95 1017.0
20260510124523 9 341 0.0 1.6 0.00 0.00 0.00 96 1017.0
20260510123524 8 46 0.0 1.6 0.00 0.00 0.00 96 1016.8
20260510122539 7 142 0.0 1.6 0.00 0.00 0.00 96 1016.7
20260510121539 6 6 0.0 1.6 0.00 0.00 0.00 96 1016.6
20260510120524 5 63 0.0 3.2 0.00 0.00 0.00 96 1016.5
20260510115525 5 265 0.0 1.6 0.00 0.00 0.00 95 1016.5
20260510114524 4 0.0 0.0 0.00 0.00 0.00 95 1016.5
20260510113525 4 0.0 0.0 0.00 0.00 0.00 95 1016.4
20260510112525 3 0.0 0.0 0.00 0.00 0.00 95 1016.2
20260510111525 3 154 0.0 1.6 0.00 0.00 0.00 95 1016.0
20260510110525 3 141 0.0 3.2 0.00 0.00 0.00 95 1015.9
20260510105525 3 71 0.0 1.6 0.00 0.00 0.00 95 1015.6
20260510104525 3 49 0.0 1.6 0.00 0.00 0.00 95 1015.5
20260510103606 3 0.0 0.0 0.00 0.00 0.00 95 1015.3
20260510102526 3 0.0 0.0 0.00 0.00 0.00 95 1015.3
20260510101517 3 0.0 0.0 0.00 0.00 0.00 95 1015.2
20260510100518 3 31 0.0 1.6 0.00 0.00 0.00 95 1015.1
20260510095518 3 54 0.0 1.6 0.00 0.00 0.00 95 1015.0
20260510094518 3 41 0.0 1.6 0.00 0.00 0.00 95 1015.0
20260510093518 3 47 0.0 1.6 0.00 0.00 0.00 95 1014.9
20260510092515 3 0.0 0.0 0.00 0.00 0.00 95 1014.9
20260510091516 3 33 0.0 1.6 0.00 0.00 0.00 95 1014.8
20260510090517 3 125 0.0 1.6 0.00 0.00 0.00 94 1014.7
20260510085516 3 174 0.0 1.6 0.00 0.00 0.00 94 1014.7
20260510084556 3 185 0.0 1.6 0.00 0.00 0.00 94 1014.7
20260510083517 3 33 0.0 1.6 0.00 0.00 0.00 94 1014.6
20260510082536 4 100 0.0 0.0 0.00 0.00 0.00 94 1014.6
20260510081517 4 32 0.0 3.2 0.00 0.00 0.00 94 1014.5
20260510080517 4 0.0 0.0 0.00 0.00 0.00 94 1014.4
20260510075517 4 23 0.0 1.6 0.00 0.00 0.00 94 1014.2
20260510074517 4 132 0.0 1.6 0.00 0.00 0.00 94 1014.1
20260510073538 4 133 0.0 3.2 0.00 0.00 0.00 94 1014.1
20260510072518 5 48 0.0 0.0 0.00 0.00 0.00 94 1014.1
20260510071517 5 116 0.0 1.6 0.00 0.00 0.00 94 1014.0
20260510070518 5 99 0.0 1.6 0.00 0.00 0.00 94 1013.9
20260510065538 5 101 0.0 1.6 0.00 0.00 0.00 94 1013.8
20260510064538 5 142 0.0 1.6 0.00 0.00 0.00 93 1013.9
20260510063536 5 121 0.0 1.6 0.00 0.00 0.00 93 1013.9
20260510062516 5 70 0.0 1.6 0.00 0.00 0.00 93 1014.0
20260510061516 5 84 0.0 0.0 0.00 0.00 0.00 93 1014.0
20260510060536 5 127 0.0 3.2 0.00 0.00 0.00 93 1013.9
20260510055522 6 55 0.0 0.0 0.00 0.00 0.00 93 1013.9
20260510054517 6 67 0.0 3.2 0.00 0.00 0.00 93 1014.0
20260510053520 6 235 0.0 1.6 0.00 0.00 0.00 92 1014.0
20260510052517 6 116 0.0 1.6 0.00 0.00 0.00 92 1013.9
20260510051520 6 14 0.0 1.6 0.00 0.00 0.00 92 1014.0
20260510050517 6 90 0.0 1.6 0.00 0.00 0.00 92 1014.0
20260510045517 6 258 0.0 1.6 0.00 0.00 0.00 92 1014.0
20260510044517 6 44 0.0 1.6 0.00 0.00 0.00 91 1013.9
20260510043517 7 126 0.0 3.2 0.00 0.00 0.00 91 1013.8
20260510042517 7 58 0.0 3.2 0.00 0.00 0.00 91 1013.9
20260510041538 7 149 0.0 3.2 0.00 0.00 0.00 91 1013.9
20260510040519 7 70 0.0 3.2 0.00 0.00 0.00 90 1013.8
20260510035516 7 108 0.0 3.2 0.00 0.00 0.00 90 1013.7
20260510034518 7 125 1.6 3.2 0.00 0.00 0.00 89 1013.7
20260510033515 8 21 0.0 1.6 0.00 0.00 0.00 88 1013.7
20260510032516 8 156 0.0 1.6 0.00 0.00 0.00 88 1013.6
20260510031557 8 34 0.0 3.2 0.00 0.00 0.00 87 1013.6
20260510030516 8 118 0.0 3.2 0.00 0.00 0.00 87 1013.6
20260510025516 9 0.0 0.0 0.00 0.00 0.00 86 1013.7
20260510024517 9 85 0.0 3.2 0.00 0.00 0.00 85 1013.6
20260510023516 10 360 0.0 1.6 0.00 0.00 0.00 84 1013.4
20260510022517 10 140 0.0 1.6 0.00 0.00 0.00 84 1013.3
20260510021517 10 39 0.0 1.6 0.00 0.00 0.00 82 1013.2
20260510020517 10 19 0.0 1.6 0.00 0.00 0.00 81 1013.0
20260510015517 11 53 0.0 1.6 0.00 0.00 0.00 81 1012.9
20260510014518 11 86 0.0 1.6 0.00 0.00 0.00 80 1012.7
20260510013518 11 286 0.0 0.0 0.00 0.00 0.00 78 1012.5
20260510012518 12 325 0.0 1.6 0.00 0.00 0.00 77 1012.2
20260510011518 12 6 0.0 1.6 0.00 0.00 0.00 76 1012.0
20260510010518 13 132 0.0 1.6 0.00 0.00 0.00 74 1011.9
20260510005518 13 104 0.0 1.6 0.00 0.00 0.00 73 1011.8
20260510004556 14 358 0.0 1.6 0.00 0.00 0.00 71 1011.7
20260510003536 15 283 0.0 3.2 0.00 0.00 0.00 68 1011.7
20260510002516 15 306 0.0 1.6 0.00 0.00 0.00 66 1011.6
20260510001536 16 230 0.0 1.6 0.00 0.00 0.00 64 1011.5
20260510000516 17 212 0.0 1.6 0.00 0.00 0.00 63 1011.3
20260509235536 17 345 0.0 1.6 0.00 0.00 0.00 61 1011.2
20260509234517 18 239 1.6 4.8 0.00 0.00 0.00 57 1011.0
20260509233517 18 299 1.6 4.8 0.00 0.00 0.00 54 1010.9
20260509232517 19 316 1.6 6.4 0.00 0.00 0.00 52 1010.8
20260509231518 20 253 1.6 4.8 0.00 0.00 0.00 51 1010.9
20260509230538 21 327 1.6 8.0 0.00 0.00 0.00 49 1010.8
20260509225517 21 330 3.2 9.7 0.00 0.00 0.00 47 1010.8
20260509224518 21 266 3.2 11.3 0.00 0.00 0.00 49 1010.8
20260509223538 21 11 3.2 11.3 0.00 0.00 0.00 48 1010.8
20260509222518 21 11 3.2 9.7 0.00 0.00 0.00 48 1010.8
20260509221538 21 29 3.2 6.4 0.00 0.00 0.00 47 1010.8
20260509220515 21 23 3.2 11.3 0.00 0.00 0.00 47 1010.7
20260509215516 21 279 3.2 9.7 0.00 0.00 0.00 47 1010.7
20260509214517 20 326 3.2 11.3 0.00 0.00 0.00 47 1010.6
20260509213517 20 337 3.2 8.0 0.00 0.00 0.00 48 1010.6
20260509212517 20 242 3.2 9.7 0.00 0.00 0.00 46 1010.4
20260509211517 21 337 4.8 11.3 0.00 0.00 0.00 45 1010.4
20260509210517 21 86 3.2 9.7 0.00 0.00 0.00 46 1010.2
20260509205517 21 277 3.2 6.4 0.00 0.00 0.00 46 1010.2
20260509204517 21 324 1.6 6.4 0.00 0.00 0.00 46 1010.2
20260509203517 21 10 1.6 4.8 0.00 0.00 0.00 46 1010.1